Wind_Speed
38 38 33 35 27 19 22 31 39 45 40 40 37 45 35 42 50 30 35 43 46 11 15 24 29 33 31 31 30 33 32 29 26 27 32 35 37 41 47 55 26 32 40 39
30 30 33 38 38 31 27 31 34 43 37 41 41 45 46 42 49 52 46 46 50 50 17 28 25 29 32 31 30 34 30 28 26 26 30 33 31 38 38 40 20 32 28 35
34 27 25 28 27 31 34 39 37 43 41 38 45 47 44 45 55 60 54 57 51 50 47 58 28 27 33 31 33 36 36 29 26 27 26 30 33 35 35 32 28 29 25 23
36 32 35 27 23 34 37 39 51 46 52 58 58 52 52 53 58 64 67 69 66 64 62 46 28 33 32 35 39 39 40 33 29 28 27 29 30 32 35 31 27 19 21 23
35 35 33 27 26 37 45 49 47 47 52 54 56 52 47 56 50 47 54 56 55 58 62 40 30 35 35 37 41 38 34 34 30 31 32 29 28 29 32 29 23 26 24 23
26 30 30 33 37 38 38 42 47 50 50 52 52 54 52 52 48 50 54 54 52 45 52 40 35 39 42 45 40 36 37 33 35 34 31 31 30 29 30 30 29 29 25 20
23 26 30 34 35 35 39 43 45 48 46 47 47 50 54 58 56 54 51 56 60 43 38 30 33 37 39 40 35 37 36 35 36 36 34 33 32 30 28 31 32 29 26 23
30 31 35 41 38 40 43 44 45 45 47 52 53 59 65 68 69 66 63 69 47 42 40 34 39 40 42 39 36 36 34 35 37 40 37 37 34 34 32 29 30 29 29 29
43 44 43 37 41 42 42 44 44 51 56 56 56 60 65 65 62 65 68 46 21 33 37 38 41 43 39 37 37 37 38 38 41 42 40 39 33 32 29 29 30 29 31 32
39 41 43 43 45 46 46 46 52 55 57 61 63 66 69 68 69 69 67 71 66 67 38 34 32 35 36 35 39 39 39 44 39 38 43 38 33 33 30 31 31 32 33 35
35 37 39 43 45 46 47 52 57 60 60 59 58 59 62 57 56 59 60 62 65 50 31 31 32 32 34 35 34 35 34 32 40 36 34 28 29 28 31 31 32 33 34 37
37 40 39 38 40 49 51 51 53 53 49 48 49 53 55 53 56 55 55 56 49 32 30 28 33 26 31 30 32 33 25 34 31 32 31 30 30 28 31 32 33 35 36 38
38 39 42 44 47 48 47 43 43 45 45 44 43 49 51 50 44 44 46 34 23 22 25 34 26 20 29 25 15 21 22 24 28 28 26 29 31 31 34 36 37 39 41 41
38 38 38 35 31 28 31 34 38 40 40 39 40 45 47 44 32 33 31 32 25 14 21 29 21 26 24 30 21 18 18 21 23 26 28 30 32 34 36 38 39 41 42 43
34 32 28 23 23 24 26 28 31 33 33 34 34 34 40 49 22 21 28 22 16 7 11 4 5 9 12 18 16 18 20 23 24 26 28 31 34 34 37 40 40 40 41 42
28 25 25 24 25 25 27 26 28 32 32 30 35 24 15 25 15 11 19 18 22 20 10 10 12 9 12 18 21 24 24 23 24 26 27 30 34 36 35 35 36 38 41 44
25 24 26 26 26 25 25 26 27 33 34 32 36 20 21 26 16 11 10 12 14 3 1 8 14 16 21 21 22 21 19 20 24 27 29 28 28 29 29 33 36 39 39 38
25 28 28 27 28 30 29 29 31 32 34 32 29 30 24 14 9 9 9 7 8 15 11 15 16 18 16 15 15 16 19 18 18 20 22 24 27 30 33 34 33 32 31 32
27 29 30 30 34 34 35 36 38 38 35 35 32 16 22 4 9 9 9 12 11 12 13 13 13 11 13 12 11 14 15 17 18 20 23 27 28 28 29 28 26 26 26 28
29 31 33 33 35 38 40 42 44 43 40 38 35 30 26 15 15 9 7 9 12 11 8 9 6 4 8 10 11 12 15 18 21 24 24 24 26 26 24 20 20 22 25 24
31 32 34 36 37 40 40 41 44 43 41 35 29 25 15 10 15 10 9 5 3 3 2 3 6 7 10 13 16 18 19 19 19 20 19 18 18 15 14 16 20 22 26 24
31 33 35 37 37 34 39 38 32 30 29 24 22 10 8 11 12 6 5 1 2 4 6 8 7 10 13 14 13 13 15 13 12 13 16 17 15 18 18 18 23 22 22 18
30 32 35 31 34 36 32 27 22 20 20 18 18 23 16 13 15 12 10 7 4 5 6 9 12 11 11 12 11 9 11 12 12 14 15 15 16 17 17 19 20 20 21 20
28 31 29 31 30 27 20 20 17 16 16 18 16 15 13 11 4 3 7 5 5 6 10 8 8 7 8 10 12 13 15 16 14 14 16 18 20 20 20 21 20 20 20 19
26 25 24 20 19 17 20 18 9 12 14 13 12 11 9 3 5 6 4 4 6 6 6 8 9 11 11 12 12 12 10 10 12 14 17 19 20 20 22 22 22 22 23 23
22 19 17 13 13 21 6 7 6 15 16 17 13 11 2 5 2 1 4 3 3 5 6 7 8 9 11 12 12 13 15 16 17 20 21 21 22 21 21 23 24 23 21 21
18 13 15 11 6 10 13 11 13 12 10 11 10 11 6 3 1 0 0 1 2 4 5 5 7 9 11 11 12 13 15 17 17 20 22 23 23 22 23 23 24 23 24 25
Wind_Direction
260 258 240 228 237 249 279 251 254 242 252 236 246 253 262 271 266 269 270 261 260 229 249 267 271 276 275 276 285 289 294 299 305 308 305 308 319 326 331 315 238 237 238 234
268 259 252 236 239 239 250 263 264 273 262 257 245 260 254 259 281 279 270 268 279 277 254 252 266 270 271 271 279 286 290 293 304 306 301 308 312 316 338 345 292 336 338 253
256 257 249 243 238 246 255 255 263 274 274 275 277 282 263 264 273 274 273 276 276 301 286 282 243 254 262 273 279 280 282 285 289 292 300 305 309 317 328 333 330 331 328 317
265 267 262 261 260 257 250 252 255 264 269 271 275 273 271 274 273 279 277 280 280 293 286 264 239 256 261 266 268 270 275 281 284 291 289 292 300 309 318 325 319 306 308 304
255 257 264 259 247 247 257 266 263 259 259 267 273 276 270 273 279 270 279 287 282 277 277 277 264 255 257 260 267 268 273 277 283 285 289 289 294 303 310 315 313 301 284 272
250 255 264 259 257 253 248 257 267 271 273 277 282 284 288 287 287 286 285 279 277 271 275 245 244 253 256 255 264 262 266 273 277 280 283 290 300 307 306 301 297 294 292 276
248 236 236 256 262 267 266 267 271 274 280 283 284 287 288 292 293 289 281 286 289 281 259 243 246 251 252 254 259 260 263 269 277 283 287 291 296 301 299 295 292 293 292 286
235 239 253 264 265 269 259 264 270 272 278 278 281 283 286 286 287 285 286 285 244 241 233 243 248 245 246 251 255 259 267 271 275 281 286 292 294 295 298 288 283 282 281 285
244 251 252 258 271 273 269 275 273 278 279 281 282 278 283 282 281 287 283 278 251 230 234 239 245 247 247 252 257 266 272 277 278 282 280 285 289 295 288 282 283 282 282 282
251 261 269 274 275 279 285 287 282 280 277 276 275 275 278 279 283 284 285 287 291 291 230 236 238 237 244 248 251 260 272 277 275 278 276 281 291 288 281 285 284 284 286 285
266 270 272 283 290 294 288 282 280 279 279 280 280 281 282 283 283 282 284 290 292 283 243 234 225 232 248 251 259 270 268 263 263 269 282 289 290 290 285 283 285 284 282 281
281 285 291 290 283 279 285 286 283 283 283 281 283 282 285 286 284 286 291 291 285 261 209 232 230 233 232 260 258 266 279 259 269 268 280 285 288 288 287 285 285 285 285 284
289 285 286 289 290 289 287 285 282 285 285 285 284 283 282 285 290 296 308 292 215 197 206 211 212 239 237 247 277 269 269 271 274 276 281 287 287 285 287 290 292 290 289 288
286 291 293 291 289 288 291 295 296 296 298 292 292 290 290 284 289 299 299 285 253 223 232 252 236 237 249 266 280 261 267 274 277 282 285 286 284 286 287 288 291 293 294 294
289 291 289 290 290 292 297 301 302 300 299 294 293 301 294 307 316 319 313 285 272 329 28 4 243 225 234 260 265 276 281 273 272 274 278 283 286 289 293 294 295 295 295 296
290 288 290 293 292 293 294 299 302 298 294 299 295 309 306 319 311 322 303 311 307 257 298 334 354 323 273 271 271 273 274 277 280 284 286 287 288 294 296 297 299 300 300 302
286 286 289 291 291 292 295 298 299 298 304 294 329 324 324 299 294 289 288 308 310 342 140 332 304 274 269 264 266 270 275 282 288 294 294 294 292 293 295 298 298 298 299 300
284 287 287 288 289 292 296 296 294 294 298 305 308 305 276 270 306 297 297 282 275 275 290 245 256 278 275 274 276 277 282 285 287 289 289 291 295 296 296 295 296 298 302 305
287 290 292 292 290 290 291 289 289 288 287 287 289 275 332 350 352 320 288 285 271 269 269 249 288 263 255 264 279 283 286 290 291 293 297 299 300 299 298 298 300 308 314 318
288 292 295 292 289 289 288 287 285 283 281 279 280 285 289 302 317 295 270 270 279 293 292 277 247 254 284 287 284 290 296 302 304 302 302 305 305 304 303 305 311 316 317 322
293 296 294 293 293 293 291 290 284 278 274 273 269 273 272 291 316 316 301 209 222 285 322 296 296 289 296 306 307 307 307 303 301 303 307 311 313 313 320 329 328 330 327 318
293 295 298 301 302 295 296 292 285 276 267 253 249 261 290 299 312 283 256 245 276 269 268 280 289 295 295 299 299 300 303 307 310 318 315 309 306 316 315 309 324 323 322 322
300 304 306 304 303 301 297 285 275 266 258 235 232 242 258 276 293 268 219 227 259 281 286 297 302 310 312 320 329 326 318 323 322 314 311 315 315 314 316 315 314 316 317 313
306 310 310 309 311 312 305 282 269 246 231 220 222 226 247 289 278 167 235 261 288 309 313 321 331 336 334 333 332 333 325 323 329 329 324 325 323 321 321 317 317 316 313 310
313 316 315 318 340 341 341 307 243 182 176 186 205 221 204 171 223 255 284 297 317 332 347 354 352 345 336 335 331 326 319 320 320 323 330 329 326 323 321 316 311 310 308 308
316 312 317 322 329 326 317 356 169 154 157 161 168 197 194 214 202 257 316 346 348 351 343 345 335 329 328 333 333 328 325 324 322 322 321 320 317 311 312 312 309 311 310 307
320 304 317 324 340 309 360 59 73 124 127 155 179 180 185 183 136 200 257 297 15 13 351 333 335 339 329 324 324 322 319 317 322 321 321 320 319 320 323 320 320 316 310 311
Height
5893 5893 5897 5896 5897 5898 5897 5895 5891 5890 5889 5882 5890 5886 5886 5883 5880 5879 5878 5874 5868 5873 5878 5880 5882 5883 5879 5877 5873 5872 5874 5875 5875 5870 5862 5861 5856 5856 5845 5835 5824 5824 5833 5836
5880 5881 5885 5888 5888 5889 5887 5880 5878 5878 5883 5881 5881 5880 5881 5877 5873 5873 5870 5865 5865 5867 5855 5865 5873 5876 5874 5870 5867 5865 5865 5866 5868 5866 5859 5855 5854 5851 5844 5836 5830 5831 5830 5833
5869 5873 5873 5874 5879 5878 5875 5872 5871 5869 5867 5869 5870 5871 5870 5870 5864 5858 5860 5859 5858 5858 5858 5864 5862 5864 5864 5862 5860 5860 5858 5858 5860 5859 5856 5847 5845 5842 5840 5841 5832 5832 5831 5829
5863 5867 5865 5872 5874 5868 5866 5865 5864 5861 5858 5856 5856 5861 5860 5858 5855 5850 5848 5850 5850 5851 5849 5846 5848 5848 5852 5850 5849 5849 5849 5848 5847 5848 5848 5847 5840 5834 5834 5832 5831 5826 5824 5822
5856 5857 5859 5862 5861 5858 5855 5852 5851 5851 5852 5849 5845 5847 5855 5848 5848 5845 5843 5840 5840 5842 5835 5840 5835 5835 5836 5837 5839 5838 5838 5835 5836 5836 5836 5836 5834 5830 5827 5824 5823 5823 5822 5821
5849 5848 5850 5847 5846 5845 5847 5845 5840 5837 5838 5840 5842 5839 5837 5836 5835 5830 5830 5829 5830 5827 5827 5826 5821 5821 5822 5824 5827 5826 5824 5824 5825 5826 5825 5825 5823 5821 5819 5817 5816 5817 5815 5814
5841 5838 5836 5834 5836 5838 5839 5837 5833 5831 5831 5829 5827 5820 5814 5812 5817 5813 5810 5805 5809 5813 5816 5811 5807 5812 5815 5814 5812 5812 5814 5813 5812 5813 5814 5815 5815 5814 5814 5813 5810 5807 5805 5804
5827 5829 5829 5825 5828 5830 5830 5826 5824 5822 5823 5820 5818 5810 5802 5798 5797 5795 5793 5784 5774 5787 5793 5792 5796 5802 5799 5798 5799 5799 5801 5804 5804 5803 5804 5804 5804 5804 5802 5802 5802 5800 5799 5797
5824 5821 5819 5820 5820 5819 5819 5820 5818 5813 5809 5807 5806 5798 5790 5784 5781 5777 5769 5754 5756 5764 5767 5771 5782 5786 5785 5784 5788 5786 5791 5792 5794 5793 5794 5793 5793 5792 5793 5792 5791 5791 5791 5791
5816 5813 5811 5811 5810 5811 5810 5808 5802 5796 5794 5793 5788 5782 5775 5774 5774 5768 5759 5749 5753 5734 5742 5757 5768 5769 5773 5774 5777 5778 5780 5781 5783 5783 5785 5785 5781 5781 5783 5783 5782 5781 5780 5780
5805 5805 5805 5801 5800 5798 5795 5790 5785 5781 5780 5778 5774 5768 5756 5760 5758 5753 5751 5744 5738 5750 5752 5746 5749 5755 5759 5760 5764 5765 5770 5771 5771 5773 5775 5773 5772 5771 5770 5771 5770 5770 5769 5768
5795 5794 5795 5795 5792 5785 5782 5777 5771 5766 5764 5762 5762 5754 5745 5743 5739 5739 5735 5732 5731 5730 5712 5730 5743 5744 5747 5749 5752 5757 5760 5763 5764 5763 5763 5761 5762 5761 5760 5759 5758 5757 5757 5755
5787 5786 5784 5779 5773 5770 5766 5763 5759 5755 5751 5751 5749 5740 5734 5730 5730 5729 5722 5723 5720 5718 5718 5720 5728 5733 5737 5742 5744 5747 5750 5754 5756 5755 5752 5752 5752 5750 5748 5747 5746 5744 5742 5741
5776 5774 5772 5768 5764 5760 5756 5753 5749 5745 5743 5741 5739 5731 5727 5724 5724 5722 5726 5718 5713 5716 5713 5718 5719 5724 5730 5735 5739 5744 5744 5745 5745 5745 5745 5745 5743 5742 5739 5739 5736 5734 5731 5728
5767 5764 5761 5759 5755 5752 5749 5747 5743 5738 5732 5728 5725 5722 5719 5723 5716 5712 5713 5711 5714 5718 5719 5718 5720 5721 5725 5731 5733 5734 5736 5738 5736 5736 5737 5736 5734 5732 5728 5727 5725 5721 5719 5717
5758 5755 5753 5750 5747 5744 5743 5740 5736 5728 5725 5721 5718 5716 5712 5715 5711 5710 5709 5710 5709 5711 5718 5721 5720 5720 5722 5723 5725 5727 5728 5728 5727 5726 5725 5726 5724 5721 5718 5715 5712 5709 5706 5703
5749 5748 5745 5743 5740 5737 5734 5732 5728 5721 5718 5716 5710 5708 5706 5711 5708 5705 5708 5707 5707 5709 5711 5714 5717 5716 5717 5717 5717 5717 5718 5719 5719 5719 5718 5716 5714 5712 5709 5706 5704 5701 5696 5692
5741 5740 5737 5736 5732 5728 5725 5723 5721 5718 5715 5715 5709 5705 5703 5701 5700 5703 5704 5703 5705 5706 5709 5709 5709 5711 5711 5712 5711 5711 5712 5711 5711 5712 5710 5708 5706 5703 5700 5696 5693 5690 5687 5681
5733 5730 5728 5727 5723 5718 5715 5713 5710 5709 5709 5708 5706 5700 5702 5699 5700 5699 5700 5703 5702 5700 5701 5704 5704 5704 5705 5704 5705 5706 5706 5706 5705 5704 5702 5699 5697 5693 5689 5686 5684 5681 5677 5673
5724 5721 5718 5716 5713 5709 5704 5701 5698 5697 5697 5697 5698 5699 5698 5699 5698 5696 5695 5696 5696 5696 5696 5698 5698 5699 5700 5701 5701 5701 5700 5698 5697 5696 5693 5690 5687 5683 5681 5679 5676 5673 5670 5666
5715 5711 5709 5705 5702 5697 5692 5687 5683 5683 5684 5686 5690 5693 5693 5693 5691 5691 5691 5691 5692 5693 5693 5694 5695 5696 5697 5695 5696 5695 5693 5691 5689 5688 5687 5683 5680 5678 5675 5673 5670 5667 5663 5659
5705 5702 5698 5693 5688 5684 5679 5672 5668 5668 5670 5677 5683 5682 5686 5690 5690 5690 5689 5688 5690 5694 5694 5693 5693 5692 5693 5691 5691 5690 5688 5686 5685 5683 5680 5678 5676 5673 5669 5668 5666 5663 5660 5656
5696 5692 5687 5683 5678 5672 5666 5661 5659 5660 5662 5667 5674 5678 5681 5684 5686 5688 5689 5689 5691 5691 5690 5691 5690 5689 5688 5686 5685 5684 5683 5681 5679 5679 5677 5674 5671 5669 5666 5663 5661 5658 5655 5652
5688 5684 5678 5674 5668 5662 5657 5653 5652 5653 5657 5662 5668 5672 5677 5680 5681 5683 5686 5686 5685 5685 5685 5687 5686 5684 5684 5682 5681 5679 5678 5677 5676 5674 5672 5669 5667 5663 5660 5658 5655 5652 5648 5645
5682 5678 5674 5670 5665 5660 5655 5651 5650 5651 5655 5661 5666 5670 5674 5677 5679 5681 5682 5683 5682 5680 5681 5682 5681 5680 5680 5678 5679 5678 5677 5675 5673 5670 5668 5665 5662 5658 5656 5653 5650 5646 5643 5639
5676 5674 5671 5667 5665 5661 5658 5654 5654 5655 5659 5663 5667 5669 5672 5675 5677 5678 5678 5680 5681 5681 5681 5682 5681 5680 5679 5678 5676 5675 5673 5671 5669 5667 5664 5661 5658 5655 5652 5648 5645 5641 5637 5632
5674 5671 5668 5667 5664 5663 5661 5659 5658 5659 5663 5665 5669 5671 5672 5673 5675 5678 5680 5682 5683 5682 5683 5682 5680 5679 5678 5676 5674 5672 5670 5668 5666 5663 5659 5656 5653 5649 5645 5641 5638 5634 5629 5625